Regional Weather Roundup
Issued by NWS Wakefield, VA

Home | Current Version | Previous Version | Text Only | Print | Product List | Glossary Off
Versions: 1 2 3 4 5 6 7 8 9 10 11 12 13 14 15 16 17 18 19 20 21 22 23 24 25 26 27 28

000
ASUS41 KAKQ 201210
RWRAKQ

REGIONAL WEATHER ROUNDUP
NATIONAL WEATHER SERVICE WAKEFIELD VA
800 AM EDT SUN APR 20 2014

Note: "fair" indicates few or no clouds below 12,000 feet with no
significant weather and/or obstructions to visibility. * = Denotes
station may not report precipitation (e.g., rain,snow,etc.),
thunder or fog.

VAZ042-051-052>054-056-201300-
NORTHERN VIRGINIA

CITY           SKY/WX    TMP DP  RH WIND       PRES   REMARKS
WASH NATIONAL  CLOUDY    52  34  50 NE7       30.38R
DULLES         CLOUDY    46  28  49 N7        30.38R
FORT BELVOIR   CLOUDY    51  34  52 NE5       30.38R
QUANTICO       CLOUDY    52  35  52 NE9       30.38R
FREDERICKSBRG* CLOUDY    46  39  76 CALM      30.35R
STAFFORD*      CLOUDY    48  38  67 CALM      30.40S
WARRENTON      CLOUDY    48  37  67 N5        30.37R
CULPEPER*      CLOUDY    46  36  66 NE5       30.38R
MANASSAS*      SUNNY     46  34  61 N8        30.38R
LEESBURG*      PTSUNNY   46  32  57 N5        30.40R
WINCHESTER     MOSUNNY   46  28  49 CALM      30.38S
$$

VAZ048-049-060>072-079>083-201300-
CENTRAL AND SOUTH CENTRAL VIRGINIA...AND NORTH CENTRAL NORTH CAROLINA

CITY           SKY/WX    TMP DP  RH WIND       PRES   REMARKS
RICHMOND       PTSUNNY   52  34  50 NE12      30.31R
CHESTERFIELD*  NOT AVBL
HANOVER        CLOUDY    50  35  56 VRB5      30.34R
TAPPAHANNOCK*  CLOUDY    51  35  54 N6        30.33R
CHARLOTTSVILLE CLOUDY    47  30  51 E5        30.34R
ORANGE*        CLOUDY    46  32  57 NW7       30.36R
LOUISA*        CLOUDY    46  34  61 N6        30.33R
FARMVILLE*     MOSUNNY   48  36  61 N9        30.29R
SOUTH HILL*    MOSUNNY   52  34  50 NE12      30.31R
ROANOKE RAPIDS MOSUNNY   52  37  58 NE13G21   30.23R
RALEIGH        PTSUNNY   50  32  50 NE12G18   30.22R
$$

VAZ088>098-201300-
SOUTHEAST VIRGINIA

CITY           SKY/WX    TMP DP  RH WIND       PRES   REMARKS
NORFOLK        MOSUNNY   52  43  71 NE17G26   30.24R
VIRGINIA BEACH PTSUNNY   52  43  71 NE25G31   30.23R
NORFOLK NAVAL  PTSUNNY   54  43  66 NE22      30.27R
WEST POINT*    MOSUNNY   53  36  52 NE8       30.32R
NEWPORT NEWS   SUNNY     57  38  48 NE16G22   30.27R
LANGLEY AFB    SUNNY     53  41  63 NE14      30.28R
FORT EUSTIS    SUNNY     54  41  60 NE10G21   30.26R
WILLIAMSBURG*  MOSUNNY   54  41  62 NE3       30.29R
FRANKLIN*      MOSUNNY   54  37  54 NE8       30.25R
WAKEFIELD      MOSUNNY   52  37  56 NE9G17    30.27R
$$

VAZ020-022-025-037-045-201300-
WESTERN AND SOUTHWEST VIRGINIA

CITY           SKY/WX    TMP DP  RH WIND       PRES   REMARKS
STAUNTON*      CLOUDY    45  32  60 N6        30.37R
HOT SPRINGS VA PTSUNNY   43  25  49 E10G16    30.34R
LYNCHBURG      PTSUNNY   53  34  48 N7        30.31R
DANVILLE       MOSUNNY   51  33  50 NE13      30.27R
MARTINSVILLE   MOSUNNY   49  39  68 N6        30.31S
ROANOKE        PTSUNNY   50  37  61 N7        30.33R
BLACKSBURG     PTSUNNY   48  37  66 E3        30.32R
DUBLIN*        PTSUNNY   43  40  91 CALM      30.32R
MARION*        SUNNY     40  37  87 E3        30.32R
HILLSVILLE*    MOSUNNY   45  34  65 NE6       30.32R
RICHLANDS*     SUNNY     53  34  49 E3        30.27R
WISE*          SUNNY     50  34  53 CALM      30.29R
ABINGDON*      SUNNY     51  38  61 E6        30.28R
$$

MDZ021>025-VAZ099-100-201300-
SOUTHERN MARYLAND AND THE DELMARVA PENINSULA

CITY           SKY/WX    TMP DP  RH WIND       PRES   REMARKS
PATUXENT RIVER CLOUDY    49  38  65 NE13      30.35R
BAY BRIDGE APT CLOUDY    50  34  53 E10       30.39R
LEONARDTOWN    CLOUDY    50  36  57 NE3       30.36S
DOVER          CLOUDY    49  37  63 NE20G25   30.36R
GEORGETOWN     CLOUDY    51  37  58 NE21G29   30.37R
EASTON         CLOUDY    50  37  62 E8G17     30.41R
CAMBRIDGE      CLOUDY    52  37  58 NE7       30.36R
SALISBURY      CLOUDY    52  41  66 NE15      30.34R
OCEAN CITY     PTSUNNY   49  41  74 NE13G22   30.34R
WALLOPS ISLAND PTSUNNY   52  44  74 E23G30    30.31R
ACCOMACK*      PTSUNNY   52  39  62 NE20      30.29R
$$

NCZ012>017-030>032-201300-
EASTERN NORTH CAROLINA

CITY           SKY/WX    TMP DP  RH WIND       PRES   REMARKS
ELIZABETH CITY CLOUDY    54  45  71 N21G28    30.18R
AHOSKIE*       PTSUNNY   51  35  54 N12       30.22R
EDENTON*       CLOUDY    54  45  71 NE16G26   30.18R
CURRITUCK*     CLOUDY    53  43  70 N16G28    30.20R
KILL DEVIL HLS CLOUDY    51  48  88 N14G23    30.12S FOG
MANTEO         CLOUDY    52  48  86 NE21G31   30.12S
CAPE HATTERAS  RAIN      54  54 100 NE13G24   30.04S FOG
GOLDSBORO      CLOUDY    51  38  61 N9        30.14R
WASHINGTON     CLOUDY    53  45  75 N20       30.14S
GREENVILLE     CLOUDY    50  37  62 N14       30.17S
NEW BERN       CLOUDY    53  46  77 N14G22    30.12R
WILMINGTON     CLOUDY    53  47  79 N16G25    30.08R
$$

VAZ048-201300-
ELSEWHERE

CITY           SKY/WX    TMP DP  RH WIND       PRES   REMARKS
HARRISBURG PA  PTSUNNY   49  27  42 NE6       30.42R
BALTIMORE      CLOUDY    51  30  44 NE12      30.38R
ANNAPOLIS      CLOUDY    51  35  54 E10G21    30.39R
ANDREWS AFB    CLOUDY    48  37  64 E6        30.37R
WILMINGTON DE  CLOUDY    49  34  56 E16       30.44R
PHILADELPHIA   CLOUDY    48  31  51 E13       30.45R
WILDWOOD NJ*   CLOUDY    48  36  61 E16G23    30.40R
ATLANTIC CITY  CLOUDY    48  34  58 E21G26    30.41R
HENDERSON NC   MOSUNNY   48  31  52 N5        30.25R
GREENSBORO     PTSUNNY   50  33  52 NE10      30.24R
ROCKY MOUNT    CLOUDY    52  34  50 N18G25    30.20R
FAYETTEVILLE   CLOUDY    54  35  48 N18       30.15R
CHARLOTTE      PTSUNNY   49  42  77 N8        30.23R
$$

VAZ100-201300-
MARINE

STATION/POSITION TIME  TEMP    WIND        PRES    WAVE   SWELL
                       AIR SEA DIR/SP/G            HT/PER HT/PER
                 (UTC) (F)     (DEG/KT/KT) (MB)    (FT/S) (FT/S)
44066 TX TWR #4  1200   45 44   60/ 19/ 21 1029.6R   6/ 8   3/ 8
CAPE MAY NJ      1200   48 53   80/ 12/ 19 1028.6R
LEWES DE         1200   48 49   80/ 23/ 27 1027.5S
15NM E FENWICK I 1200   48 46              1027.0R   5/10
OCEAN-CITY-INLET 1200   48 49   60/ 10/ 17 1027.1R
WACHAPREAGUE VA  1200   51 51   50/ 19/ 27 1025.1R
THOMAS POINT MD  1200   51 53   60/ 12/ 14 1029.2R
GOOSES REEF MD   1200   51     100/ 16/ 19 1029.1R
COVE POINT MD    1200   49      70/ 15/ 17 1027.6R
SOLOMONS ISLAND  1200      52                N/A
BISHOPS HEAD MD  1200   50 54   30/ 13/ 17 1027.0R
PINEY POINT MD   1200           60/ 11/ 15   N/A
POTOMAC MD       1200   50      50/ 12/ 16 1026.3R
CAMBRIDGE MD     1200   50 56   50/ 13/ 16 1027.5R
LEWISETTA VA     1200   51 53   50/ 11/ 18 1026.6S
RAPPAHANNOCK LGT 1200           30/ 19/ 20 1025.8R
STINGRAY PT      1200   52      50/ 17/ 21 1025.4S
YORK RVR RNG VA  1200   52      40/ 22/ 25 1024.2R
YORKTOWN VA      1200   53 54   50/ 19/ 22 1024.8R
JAMESTOWN VA     1200   52      40/  6/ 10   N/A
DOMINION TERM VA 1200   53      40/  9/ 19 1024.3R
KIPTOPEKE VA     1200      51   60/ 14/ 22   N/A
CHES BAY BRIDGE  1200   51 51   30/ 24/ 30 1023.6R
CAPE HENRY VA    1200   50      30/ 23/ 26   N/A
CHESAPEAKE LGHT  1100   48      40/ 29/ 31 1022.5F
WILLOUBY STN VA  1200   52      40/ 22/ 24 1023.5R
S CRANEY ISL VA  1200           10/ 19/ 23 1024.1R
CAPE HENRY BUOY  1200      47                N/A     6/ 8
1ST LANDING BUOY 1200      46                N/A     6/ 6   3/ 8
64NM E OF VA BCH 1200   55 48   40/ 17/ 21 1020.8R   9/ 8   7/ 8
DUCK PIER NC     1200   51 49   20/ 28/ 32 1019.6S
44100 DUCK FRF   1200      48                N/A     8/ 9   2/11
44056 DUCK FRF   1200      48                N/A     8/ 8   2/11
OREGON INLET NC  1200   51 51   10/ 16/ 22 1019.1R
HATTERAS NC      1200   55 56   20/ 13/ 21 1017.4S
DIAMOND SHLS NC  1200   67 76   60/ 33/ 43 1014.4F  14/10
CAPE LOOKOUT NC  1100   57      20/ 23/ 29 1016.2R
FRYING PAN SHLS  1200   61 69   30/ 31/ 37 1013.8R  11/ 8
$$



USA.gov is the U.S. government's official web portal to all federal, state and local government web resources and services.